EA1AML-1 Vega de Espinareda ES current weather conditions

sailwx.info

Wind from 003 at 1 knots gusting 7

Air temperature 21.7° C
Dewpoint 15.7° C

Last reported at 2014-Sep-20 14:46 UTC.
Time now 2014-Sep-20 16:05 UTC

Location: N 42°43' W 006°39'.
View on Google Maps.

See reports from other nearby stations

  
Tides and Currents Weather Stations Pressure Air Temp Water Temp Dewpoint Dewpoint Depression Visibility Wind Speed Wind Dir Waves Ship Positions
date/time (UTC)wind fromknots sea level pressurealtimeterstation pressurevisibilityair tempwater tempwave heightnotes
2014-Sep-20 14:46 003 1 gusting 7 21.7
2014-Sep-20 14:40 350 4 gusting 7 21.7
2014-Sep-20 14:34 325 2 gusting 6 21.1
2014-Sep-20 14:16 311 1 gusting 5 21.1
2014-Sep-20 13:58 355 3 gusting 12 21.7
2014-Sep-20 13:52 005 6 gusting 12 22.2
2014-Sep-20 13:34 336 6 gusting 7 21.7
2014-Sep-20 13:22 270 21.1
2014-Sep-20 13:04 293 0 gusting 4 21.1
2014-Sep-20 12:58 308 0 gusting 5 21.1
2014-Sep-20 12:52 309 3 gusting 7 21.7
2014-Sep-20 12:34 317 2 gusting 7 22.2
2014-Sep-20 12:16 009 5 gusting 9 21.7
2014-Sep-20 12:10 001 5 gusting 9 21.1
2014-Sep-20 12:04 015 0 gusting 5 20.6
2014-Sep-20 11:46 332 21.1
2014-Sep-20 11:40 130 1 gusting 5 21.1
2014-Sep-20 11:35 220 0 gusting 5 21.1
2014-Sep-20 11:28 304 1 gusting 6 20.6
2014-Sep-20 11:22 315 2 gusting 6 20.6
2014-Sep-20 11:10 036 0 gusting 2 20.6
2014-Sep-20 11:04 028 20.6
2014-Sep-20 10:58 288 0 gusting 2 20.6
2014-Sep-20 10:52 256 20.6
2014-Sep-20 10:46 254 0 gusting 5 20.6
2014-Sep-20 10:34 181 20.0
2014-Sep-20 10:28 173 1 gusting 5 19.4
2014-Sep-20 10:16 260 19.4
2014-Sep-20 09:46 171 2 gusting 8 19.4
2014-Sep-20 09:34 171 2 gusting 7 18.9
2014-Sep-20 09:28 178 4 gusting 7 18.9
2014-Sep-20 09:16 183 18.3
2014-Sep-20 09:10 219 1 gusting 6 17.8
2014-Sep-20 09:04 205 3 gusting 9 17.2
2014-Sep-20 08:52 044 1 gusting 5 16.7
2014-Sep-20 08:34 025 15.0
2014-Sep-20 08:28 010 15.0
2014-Sep-20 08:22 022 14.4
2014-Sep-20 07:58 317 13.3
2014-Sep-20 07:52 314 12.8
2014-Sep-20 07:23 285 11.7
2014-Sep-20 07:16 194 11.7
2014-Sep-20 06:52 201 0 gusting 2 11.1
2014-Sep-20 06:34 203 11.1
2014-Sep-20 06:22 231 11.1
2014-Sep-20 06:16 217 11.1
2014-Sep-20 06:10 200 0 gusting 2 11.1
2014-Sep-20 06:04 176 11.1
2014-Sep-20 05:52 211 11.1
2014-Sep-20 05:40 317 11.1
2014-Sep-20 05:34 303 11.1
2014-Sep-20 05:16 001 11.1
2014-Sep-20 05:10 135 11.1
2014-Sep-20 05:04 135 11.1
2014-Sep-20 04:53 173 11.1
2014-Sep-20 04:46 176 0 gusting 1 11.1
2014-Sep-20 04:40 174 11.1
2014-Sep-20 04:22 215 11.1
2014-Sep-20 04:16 208 0 gusting 1 11.1
2014-Sep-20 04:04 350 11.7
2014-Sep-20 03:58 213 11.7
2014-Sep-20 03:54 221 11.7
2014-Sep-20 03:46 225 11.7
2014-Sep-20 03:28 169 11.7
2014-Sep-20 03:22 170 11.7
2014-Sep-20 03:10 181 11.7
2014-Sep-20 03:04 175 11.1
2014-Sep-20 02:58 177 11.1
2014-Sep-20 02:40 232 11.7
2014-Sep-20 02:34 314 11.7
2014-Sep-20 02:28 233 11.7
2014-Sep-20 02:22 187 11.7
2014-Sep-20 02:10 218 11.7
2014-Sep-20 02:04 211 11.7
2014-Sep-20 02:00 190 11.7
2014-Sep-20 01:52 217 11.7
2014-Sep-20 01:34 194 11.7
2014-Sep-20 01:28 206 11.7
2014-Sep-20 01:22 190 1 gusting 3 11.7
2014-Sep-20 01:04 194 12.2
2014-Sep-20 00:46 185 0 gusting 2 12.2
2014-Sep-20 00:41 181 12.2
2014-Sep-20 00:40 181 12.2
2014-Sep-20 00:34 195 12.8
2014-Sep-19 23:58 199 13.3
2014-Sep-19 23:46 135 13.3
2014-Sep-19 23:40 314 12.8
2014-Sep-19 23:28 314 13.3
2014-Sep-19 23:16 13.3
2014-Sep-19 23:10 12.8
2014-Sep-19 23:04 225 12.8
2014-Sep-19 22:52 001 12.8
2014-Sep-19 22:34 165 12.8
2014-Sep-19 22:22 001 12.8
2014-Sep-19 22:16 006 12.8
2014-Sep-19 22:04 045 13.3
2014-Sep-19 21:52 225 13.3
2014-Sep-19 21:40 162 13.3
2014-Sep-19 21:34 135 13.3
2014-Sep-19 21:28 13.3
2014-Sep-19 21:16 181 13.9
2014-Sep-19 21:04 163 13.9
2014-Sep-19 20:58 144 13.9
2014-Sep-19 20:52 142 13.9
2014-Sep-19 20:40 225 14.4
2014-Sep-19 20:16 183 15.0
2014-Sep-19 20:10 187 1 gusting 4 15.0
2014-Sep-19 19:58 203 0 gusting 2 15.6
2014-Sep-19 19:52 237 15.6
2014-Sep-19 19:46 244 15.6
2014-Sep-19 19:41 015 16.1
2014-Sep-19 19:40 015 16.1
2014-Sep-19 19:34 010 16.1
2014-Sep-19 19:22 334 16.7
2014-Sep-19 18:52 176 0 gusting 1 17.8
2014-Sep-19 18:40 219 18.3
2014-Sep-19 18:34 204 0 gusting 2 18.9
2014-Sep-19 18:22 227 20.0
2014-Sep-19 18:16 237 20.6
2014-Sep-19 18:04 327 21.1
2014-Sep-19 17:58 001 21.1
2014-Sep-19 17:46 286 21.7
2014-Sep-19 17:40 325 21.7
2014-Sep-19 17:22 191 22.2
2014-Sep-19 17:16 200 22.2
2014-Sep-19 16:32 356 3 gusting 7 20.6
2014-Sep-19 16:26 001 2 gusting 7 20.6
2014-Sep-19 16:14 343 4 gusting 10 20.6
2014-Sep-19 16:08 355 3 gusting 10 20.6
2014-Sep-19 16:02 359 4 gusting 10 20.6
2014-Sep-19 15:44 349 4 gusting 7 21.1
2014-Sep-19 15:32 354 2 gusting 10 21.7
2014-Sep-19 15:14 318 1 gusting 6 21.7
2014-Sep-19 15:02 269 3 gusting 5 21.7
2014-Sep-19 14:50 250 1 gusting 7 21.7
2014-Sep-19 14:44 227 2 gusting 8 21.7
2014-Sep-19 14:32 348 2 gusting 8 21.7
2014-Sep-19 14:20 356 4 gusting 8 21.7
2014-Sep-19 14:14 001 5 gusting 8 21.1
2014-Sep-19 14:08 355 5 gusting 10 20.6
2014-Sep-19 13:56 341 5 gusting 7 20.6
2014-Sep-19 13:26 003 2 gusting 12 20.6
2014-Sep-19 13:20 008 5 gusting 12 20.6
2014-Sep-19 12:56 350 0 gusting 8 19.4
2014-Sep-19 12:50 353 5 gusting 8 19.4
2014-Sep-19 12:44 007 4 gusting 8 20.0
2014-Sep-19 12:38 356 2 gusting 6 20.0
2014-Sep-19 12:14 307 2 gusting 6 19.4
2014-Sep-19 11:56 342 3 gusting 7 18.9
2014-Sep-19 11:50 342 4 gusting 11 18.9
2014-Sep-19 11:44 350 4 gusting 10 18.9
2014-Sep-19 11:38 351 5 gusting 10 18.9
2014-Sep-19 11:32 322 5 gusting 8 19.4
2014-Sep-19 11:26 282 1 gusting 6 20.0
2014-Sep-19 11:02 283 2 gusting 6 19.4
2014-Sep-19 10:56 307 0 gusting 6 19.4
2014-Sep-19 10:44 304 2 gusting 7 19.4
2014-Sep-19 10:38 324 1 gusting 7 19.4
2014-Sep-19 10:20 348 1 gusting 6 18.3
2014-Sep-19 10:14 335 3 gusting 6 18.3
2014-Sep-19 10:02 321 2 gusting 5 17.2
2014-Sep-19 09:56 334 17.2
2014-Sep-19 09:50 350 2 gusting 5 17.2
2014-Sep-19 09:44 341 2 gusting 5 17.2
2014-Sep-19 09:38 340 2 gusting 4 17.2
2014-Sep-19 09:26 326 1 gusting 5 17.2
2014-Sep-19 09:14 350 17.2
2014-Sep-19 09:08 005 17.2
2014-Sep-19 09:02 011 17.2
2014-Sep-19 08:56 012 2 gusting 4 16.7
2014-Sep-19 08:44 008 16.1
2014-Sep-19 08:32 058 0 gusting 3 15.6
2014-Sep-19 08:20 005 15.0
2014-Sep-19 08:14 001 14.4
2014-Sep-19 08:08 002 14.4
2014-Sep-19 08:02 028 14.4
2014-Sep-19 07:56 020 14.4
2014-Sep-19 07:50 001 14.4
2014-Sep-19 07:44 303 14.4
2014-Sep-19 07:38 292 13.9
2014-Sep-19 07:32 230 13.9
2014-Sep-19 07:26 223 13.9
2014-Sep-19 06:56 335 13.9
2014-Sep-19 06:50 145 13.9
2014-Sep-19 06:44 135 13.9
2014-Sep-19 06:32 319 13.9
2014-Sep-19 06:26 018 13.9
2014-Sep-19 06:20 298 13.9
2014-Sep-19 06:14 301 13.3
2014-Sep-19 06:08 271 13.3
2014-Sep-19 05:56 344 13.3
2014-Sep-19 05:50 325 13.3
2014-Sep-19 05:44 351 13.3
2014-Sep-19 05:38 270 0 gusting 2 13.3
2014-Sep-19 05:32 198 13.3
2014-Sep-19 05:26 178 13.3
2014-Sep-19 05:14 298 13.3
2014-Sep-19 05:08 303 13.3
2014-Sep-19 05:02 330 13.3
2014-Sep-19 04:56 010 13.3
2014-Sep-19 04:44 191 13.3
2014-Sep-19 04:38 189 13.3
2014-Sep-19 04:32 175 13.3
2014-Sep-19 04:26 175 13.3
2014-Sep-19 04:20 268 0 gusting 2 13.3
2014-Sep-19 04:14 320 13.3
2014-Sep-19 04:08 357 13.3
2014-Sep-19 04:02 351 13.3
2014-Sep-19 03:44 280 13.3
2014-Sep-19 03:38 314 0 gusting 1 13.3
2014-Sep-19 03:32 135 13.3
2014-Sep-19 03:26 120 13.3
2014-Sep-19 03:20 093 13.3
2014-Sep-19 03:14 349 13.3
2014-Sep-19 03:02 13.3
2014-Sep-19 02:56 305 13.3
2014-Sep-19 02:44 207 13.3
2014-Sep-19 02:38 155 13.3
2014-Sep-19 02:32 134 13.3
2014-Sep-19 02:26 175 13.3
2014-Sep-19 02:20 267 13.3
2014-Sep-19 02:14 296 2 gusting 5 13.3
2014-Sep-19 02:08 313 13.3
2014-Sep-19 02:02 314 13.3
2014-Sep-19 01:56 262 13.3
2014-Sep-19 01:50 195 13.3
2014-Sep-19 01:44 177 13.3
2014-Sep-19 01:38 188 13.3
2014-Sep-19 01:32 170 13.3
2014-Sep-19 01:26 314 13.3
2014-Sep-19 01:20 323 13.3
2014-Sep-19 01:02 181 13.3
2014-Sep-19 00:56 186 13.3
2014-Sep-19 00:44 192 13.3
2014-Sep-19 00:38 225 13.3
2014-Sep-19 00:32 001 13.3
2014-Sep-19 00:26 355 13.3
2014-Sep-19 00:21 247 13.9
2014-Sep-19 00:14 204 13.9
2014-Sep-19 00:08 212 13.9
2014-Sep-19 00:02 188 13.9
2014-Sep-18 23:50 213 13.3
2014-Sep-18 23:38 181 13.3
2014-Sep-18 23:32 181 13.3
2014-Sep-18 23:20 001 13.3
2014-Sep-18 23:14 135 13.3
2014-Sep-18 23:08 135 13.3
2014-Sep-18 22:56 216 13.3
2014-Sep-18 22:38 188 13.3
2014-Sep-18 22:26 191 13.9
2014-Sep-18 22:20 271 13.9
2014-Sep-18 22:14 230 13.9
2014-Sep-18 22:08 220 13.9
2014-Sep-18 22:02 196 13.9
2014-Sep-18 21:56 162 13.9
2014-Sep-18 21:50 090 13.9
2014-Sep-18 21:38 213 13.9
2014-Sep-18 21:32 203 13.9
2014-Sep-18 21:20 188 13.9
2014-Sep-18 21:14 185 0 gusting 2 13.9
2014-Sep-18 21:08 190 13.9
2014-Sep-18 21:02 194 13.9
2014-Sep-18 20:44 191 13.9
2014-Sep-18 20:32 215 13.9
2014-Sep-18 20:26 177 13.9
2014-Sep-18 20:20 136 13.9
2014-Sep-18 20:14 144 14.4
2014-Sep-18 20:08 181 14.4
2014-Sep-18 19:50 181 14.4
2014-Sep-18 19:44 189 14.4
2014-Sep-18 19:32 173 0 gusting 3 14.4
2014-Sep-18 19:26 103 15.0
2014-Sep-18 19:20 185 15.0
2014-Sep-18 19:14 130 15.0
2014-Sep-18 19:08 066 15.0
2014-Sep-18 19:02 078 15.0
2014-Sep-18 18:56 043 15.0
2014-Sep-18 18:50 120 15.0
2014-Sep-18 18:38 258 6 gusting 11 15.0
2014-Sep-18 18:32 204 15.0
2014-Sep-18 18:20 176 0 gusting 2 15.6
2014-Sep-18 18:02 314 15.0
2014-Sep-18 17:56 303 15.6
2014-Sep-18 17:50 225 15.6
2014-Sep-18 17:44 021 15.6
2014-Sep-18 17:38 010 15.6
2014-Sep-18 17:32 204 15.6
2014-Sep-18 17:26 205 15.6
2014-Sep-18 17:14 170 0 gusting 2 15.6
2014-Sep-18 16:50 001 15.6
2014-Sep-18 16:38 209 15.6
2014-Sep-18 16:20 218 15.6
2014-Sep-18 16:08 270 0 gusting 1 15.6